sat.trackr.live / text

‹ back to catalog

STARLINK-2185

NORAD 47767 · 2021-017AX

PAYLOAD ACTIVE UNKNOWN

§ Identity

Operator
Country
US
Launch date
2021-03-04
Launch site
AFETR
Launch vehicle
Mass (kg)
RCS (m²)

Purposes: comms

External: N2YO · Heavens-Above · Gunter

§ Orbital elements

Epoch: 2026-09-20T03:41:42.715104Z

Period
89.90 min
Inclination
53.1413°
Eccentricity
0.0011668
Mean motion
16.01804837 rev/d
Perigee alt
261.7 km
Apogee alt
277.2 km
Semi-major
6,647.6 km
B*
7.9246e-4
RAAN
336.5046°
Arg perigee
354.4137°
Mean anomaly
5.6762°
Rev number
30,827

§ Raw data

STARLINK-21851 47767U 21017AX  26263.15396661  .00462724  10595-3  79246-3 0  99972 47767  53.1413 336.5046 0011668 354.4137   5.6762 16.01804837308270

JSON: /api/v1/satellites/47767 · /tle

For live sub-satellite position, see the globe view (requires WebGL).

§ Visibility from observer

Set your observer location to see the next 7 days of passes ≥ 10°. The values pass through the URL so the page stays shareable.

No JS? Fill the form by hand. The geolocation button needs JavaScript.